Hourly Weather Bolshoe Kachino

Today, 4 August, Wednesday

Time Temperature Precipitation Wind Pressure Humidity
00:00 +21°C° 0 mm 2 mps 742 mmHg 56%
01:00 +20°C° 0 mm 2 mps 742 mmHg 56%
02:00 +20°C° 0 mm 2 mps 742 mmHg 56%
03:00 +20°C° 0 mm 2 mps 742 mmHg 57%
04:00 +20°C° 0 mm 2 mps 742 mmHg 57%
05:00 +21°C° 0.1 mm 2 mps 742 mmHg 60%
06:00 +23°C° 0.1 mm 2 mps 742 mmHg 62%
07:00 +24°C° 0.1 mm 2 mps 742 mmHg 64%
08:00 +26°C° 0.1 mm 2 mps 742 mmHg 58%
09:00 +28°C° 0.1 mm 3 mps 742 mmHg 52%
10:00 +29°C° 0.1 mm 3 mps 742 mmHg 46%
11:00 +32°C° 0 mm 4 mps 742 mmHg 42%
12:00 +33°C° 0 mm 4 mps 742 mmHg 39%
13:00 +34°C° 0 mm 4 mps 742 mmHg 35%
14:00 +34°C° 0 mm 4 mps 742 mmHg 36%
15:00 +34°C° 0 mm 3 mps 742 mmHg 37%
16:00 +34°C° 0 mm 2 mps 742 mmHg 38%
17:00 +31°C° 0 mm 2 mps 742 mmHg 47%
18:00 +29°C° 0 mm 1 mps 742 mmHg 55%
19:00 +27°C° 0 mm 1 mps 742 mmHg 63%
20:00 +25°C° 0 mm 1 mps 742 mmHg 66%
21:00 +24°C° 0 mm 1 mps 742 mmHg 69%
22:00 +21°C° 0 mm 2 mps 742 mmHg 71%
23:00 +21°C° 0.2 mm 2 mps 742 mmHg 73%

Tomorrow, 5 August, Thursday

Time Temperature Precipitation Wind Pressure Humidity
00:00 +20°C° 0.2 mm 2 mps 742 mmHg 75%
01:00 +19°C° 0.2 mm 2 mps 741 mmHg 77%
02:00 +20°C° 0 mm 1 mps 741 mmHg 80%
03:00 +19°C° 0 mm 1 mps 741 mmHg 83%
04:00 +19°C° 0 mm 1 mps 741 mmHg 86%
05:00 +19°C° 0 mm 2 mps 741 mmHg 87%
06:00 +19°C° 0 mm 3 mps 741 mmHg 89%
07:00 +20°C° 0 mm 3 mps 741 mmHg 90%
08:00 +20°C° 0 mm 3 mps 741 mmHg 85%
09:00 +21°C° 0 mm 3 mps 742 mmHg 81%
10:00 +22°C° 0 mm 4 mps 742 mmHg 77%
11:00 +23°C° 0 mm 4 mps 742 mmHg 69%
12:00 +25°C° 0 mm 4 mps 742 mmHg 62%
13:00 +27°C° 0 mm 4 mps 742 mmHg 55%
14:00 +26°C° 0 mm 4 mps 742 mmHg 54%
15:00 +26°C° 0 mm 5 mps 742 mmHg 53%
16:00 +26°C° 0 mm 5 mps 742 mmHg 52%
17:00 +25°C° 0 mm 4 mps 742 mmHg 57%
18:00 +23°C° 0 mm 4 mps 743 mmHg 62%
19:00 +21°C° 0 mm 4 mps 743 mmHg 66%
20:00 +20°C° 0 mm 3 mps 743 mmHg 74%
21:00 +18°C° 0 mm 2 mps 743 mmHg 81%
22:00 +16°C° 0 mm 2 mps 743 mmHg 88%
23:00 +16°C° 0 mm 2 mps 743 mmHg 89%

Day after tomorrow, 6 August, Friday

Time Temperature Precipitation Wind Pressure Humidity
00:00 +15°C° 0 mm 2 mps 743 mmHg 91%
01:00 +15°C° 0 mm 2 mps 743 mmHg 92%
02:00 +15°C° 0 mm 2 mps 743 mmHg 93%
03:00 +14°C° 0 mm 2 mps 743 mmHg 93%
04:00 +14°C° 0 mm 2 mps 743 mmHg 94%
05:00 +14°C° 0 mm 3 mps 743 mmHg 88%
06:00 +16°C° 0 mm 3 mps 743 mmHg 83%
07:00 +17°C° 0 mm 4 mps 744 mmHg 77%
08:00 +18°C° 0 mm 4 mps 744 mmHg 72%
09:00 +19°C° 0 mm 4 mps 744 mmHg 67%
10:00 +20°C° 0 mm 5 mps 744 mmHg 62%
11:00 +21°C° 0 mm 5 mps 744 mmHg 56%
12:00 +22°C° 0 mm 5 mps 744 mmHg 49%
13:00 +25°C° 0 mm 5 mps 744 mmHg 43%
14:00 +23°C° 0 mm 5 mps 744 mmHg 42%
15:00 +23°C° 0 mm 5 mps 744 mmHg 41%
16:00 +23°C° 0 mm 5 mps 744 mmHg 39%
17:00 +22°C° 0 mm 4 mps 744 mmHg 43%
18:00 +21°C° 0 mm 4 mps 745 mmHg 47%
19:00 +20°C° 0 mm 3 mps 745 mmHg 51%
20:00 +18°C° 0 mm 3 mps 745 mmHg 57%
21:00 +16°C° 0 mm 2 mps 745 mmHg 63%
22:00 +14°C° 0 mm 2 mps 745 mmHg 69%
23:00 +14°C° 0 mm 2 mps 745 mmHg 72%

7 August, Saturday

Time Temperature Precipitation Wind Pressure Humidity
00:00 +13°C° 0 mm 2 mps 745 mmHg 75%
01:00 +12°C° 0 mm 2 mps 745 mmHg 79%
02:00 +12°C° 0 mm 2 mps 745 mmHg 81%
03:00 +10°C° 0 mm 2 mps 745 mmHg 83%
04:00 +10°C° 0 mm 2 mps 746 mmHg 85%
05:00 +12°C° 0 mm 2 mps 746 mmHg 79%
06:00 +13°C° 0 mm 3 mps 746 mmHg 73%
07:00 +14°C° 0 mm 3 mps 746 mmHg 67%
08:00 +17°C° 0 mm 4 mps 746 mmHg 60%
09:00 +18°C° 0 mm 4 mps 746 mmHg 53%
10:00 +20°C° 0 mm 4 mps 746 mmHg 47%
11:00 +21°C° 0 mm 5 mps 746 mmHg 44%
12:00 +21°C° 0 mm 5 mps 746 mmHg 42%
13:00 +22°C° 0 mm 6 mps 746 mmHg 39%
14:00 +22°C° 0 mm 6 mps 746 mmHg 39%
15:00 +22°C° 0 mm 6 mps 746 mmHg 39%
16:00 +22°C° 0 mm 6 mps 746 mmHg 39%
17:00 +21°C° 0 mm 5 mps 746 mmHg 44%
18:00 +20°C° 0 mm 4 mps 747 mmHg 48%
19:00 +18°C° 0 mm 3 mps 747 mmHg 52%
20:00 +17°C° 0 mm 3 mps 747 mmHg 58%
21:00 +15°C° 0 mm 2 mps 747 mmHg 63%
22:00 +13°C° 0 mm 2 mps 747 mmHg 69%
23:00 +13°C° 0 mm 2 mps 747 mmHg 71%

8 August, Sunday

Time Temperature Precipitation Wind Pressure Humidity
00:00 +12°C° 0 mm 2 mps 747 mmHg 73%
01:00 +12°C° 0 mm 2 mps 747 mmHg 75%
02:00 +10°C° 0 mm 2 mps 747 mmHg 79%
03:00 +9°C° 0 mm 2 mps 747 mmHg 83%
04:00 +9°C° 0 mm 2 mps 748 mmHg 87%
05:00 +10°C° 0 mm 3 mps 748 mmHg 80%
06:00 +11°C° 0 mm 3 mps 748 mmHg 74%
07:00 +13°C° 0 mm 4 mps 748 mmHg 67%
08:00 +14°C° 0 mm 4 mps 748 mmHg 61%
09:00 +16°C° 0 mm 5 mps 748 mmHg 54%
10:00 +19°C° 0 mm 5 mps 748 mmHg 47%
11:00 +20°C° 0 mm 6 mps 748 mmHg 44%
12:00 +21°C° 0 mm 6 mps 748 mmHg 41%
13:00 +22°C° 0 mm 6 mps 748 mmHg 38%
14:00 +22°C° 0 mm 6 mps 748 mmHg 38%
15:00 +22°C° 0 mm 6 mps 748 mmHg 38%
16:00 +22°C° 0 mm 6 mps 748 mmHg 38%
17:00 +21°C° 0 mm 5 mps 748 mmHg 44%
18:00 +20°C° 0 mm 4 mps 748 mmHg 51%
19:00 +19°C° 0 mm 3 mps 748 mmHg 57%
20:00 +17°C° 0 mm 2 mps 748 mmHg 62%
21:00 +16°C° 0 mm 2 mps 749 mmHg 68%
22:00 +14°C° 0 mm 1 mps 749 mmHg 74%
23:00 +13°C° 0 mm 1 mps 749 mmHg 74%

9 August, Monday

Time Temperature Precipitation Wind Pressure Humidity
00:00 +13°C° 0 mm 1 mps 749 mmHg 75%
01:00 +13°C° 0 mm 1 mps 749 mmHg 76%
02:00 +13°C° 0 mm 1 mps 749 mmHg 74%
03:00 +12°C° 0 mm 0 mps 749 mmHg 73%
04:00 +12°C° 0 mm 0 mps 749 mmHg 72%
05:00 +13°C° 0 mm 0 mps 749 mmHg 68%
06:00 +14°C° 0 mm 0 mps 749 mmHg 63%
07:00 +16°C° 0 mm 0 mps 749 mmHg 59%
08:00 +19°C° 0 mm 1 mps 749 mmHg 54%
09:00 +21°C° 0 mm 1 mps 749 mmHg 49%
10:00 +23°C° 0 mm 2 mps 749 mmHg 44%
11:00 +24°C° 0 mm 2 mps 749 mmHg 43%
12:00 +26°C° 0 mm 2 mps 748 mmHg 41%
13:00 +27°C° 0 mm 2 mps 748 mmHg 39%
14:00 +28°C° 0 mm 3 mps 748 mmHg 38%
15:00 +29°C° 0 mm 3 mps 747 mmHg 37%
16:00 +29°C° 0 mm 3 mps 747 mmHg 35%
17:00 +28°C° 0 mm 3 mps 747 mmHg 41%
18:00 +27°C° 0 mm 3 mps 746 mmHg 47%
19:00 +26°C° 0 mm 2 mps 745 mmHg 53%
20:00 +24°C° 0 mm 2 mps 746 mmHg 59%
21:00 +21°C° 0 mm 2 mps 746 mmHg 65%
22:00 +20°C° 0 mm 1 mps 746 mmHg 71%
23:00 +18°C° 0 mm 2 mps 746 mmHg 77%
Show more

We Need Your Consent

Meteoprog and our Service Providers may store and access personal data such as cookies, device identifiers or other similar technologies on your device and process such data to personalise content and ads, as well as provide social media features and to analyse the traffic.

  • Store and/or access information on your device

    Cookies, device identifiers or other information can be stored or accessed on your device for the purposes indicated above.

  • Personalised ads and content, ad and content measurement, audience insights, and products development

    Ads and content can be personalised based on a profile. More data can be added to better personalise ads and content. Ad and content performance can be measured. Insights about the audience who saw the ads and content can be derived. Such data can be used to develop or improve user’s experience, systems and software.

By clicking ‘I Agree’ you will allow the use of indicated cookies, device identifiers, web beacons or other similar technologies. Your settings can be changed in the browser on your device.

For certain purposes, legitimate interests may be relied on, rather than consent. You can read more about this in our Privacy and Cookie Policy.